Tracking 32579 objects as of 15-Dec-2025
HD Live streaming from Space Station
objects crossing your sky now

STARLINK-35797

Track STARLINK-35797 now!
10-day predictions
STARLINK-35797 is classified as:


NORAD ID: 66364
Int'l Code: 2025-254S
Perigee: 481.3 km
Apogee: 483.5 km
Inclination: 53.2 °
Period: 94.1 minutes
Semi major axis: 6853 km
RCS: Unknown
Launch date: November 6, 2025
Source: United States (US)
Launch site: AIR FORCE WESTERN TEST RANGE (AFWTR)
Your satellite tracking list
Your tracking list is empty




NASA's NSSDC Master Catalog

Two Line Element Set (TLE):
1 66364U 25254S   25348.91668981 -.00009009  00000-0 -29251-3 0  9995
2 66364  53.1606 266.4290 0001623 100.0875 255.9405 15.30188379  5550
Source of the keplerian elements: AFSPC